Precipitable_Water
0.89 0.90 0.93 0.94 0.96 0.98 0.97 0.96 0.94 0.91 0.87 0.84 0.80 0.77 0.72 0.69 0.60 0.51 0.44 0.45 0.48 0.53 0.53 0.47 0.42 0.38 0.35 0.29 0.31 0.32 0.21 0.18 0.20 0.22 0.24 0.34 0.30 0.38 0.63 0.59 0.70 0.81 0.81 1.01 1.03
0.86 0.88 0.90 0.92 0.94 0.96 0.97 0.95 0.95 0.91 0.89 0.86 0.83 0.79 0.76 0.72 0.53 0.41 0.53 0.55 0.55 0.59 0.51 0.43 0.39 0.36 0.30 0.31 0.29 0.26 0.20 0.20 0.25 0.27 0.25 0.29 0.31 0.32 0.40 0.54 0.54 0.65 0.77 1.00 0.95
0.88 0.87 0.86 0.88 0.91 0.93 0.95 0.96 0.94 0.92 0.91 0.88 0.86 0.82 0.78 0.73 0.42 0.46 0.56 0.62 0.62 0.59 0.57 0.50 0.43 0.38 0.29 0.30 0.28 0.26 0.20 0.23 0.27 0.28 0.27 0.27 0.29 0.34 0.38 0.40 0.50 0.56 0.73 0.86 0.90
0.88 0.87 0.86 0.85 0.88 0.92 0.94 0.94 0.97 0.94 0.92 0.91 0.88 0.84 0.81 0.68 0.27 0.59 0.58 0.64 0.65 0.58 0.51 0.49 0.43 0.35 0.31 0.25 0.29 0.24 0.24 0.22 0.23 0.27 0.28 0.25 0.30 0.30 0.36 0.42 0.54 0.65 0.79 0.85 0.84
0.81 0.84 0.85 0.85 0.86 0.90 0.95 0.97 0.99 0.99 0.94 0.89 0.89 0.89 0.75 0.54 0.44 0.70 0.69 0.60 0.60 0.54 0.51 0.47 0.40 0.37 0.28 0.29 0.28 0.24 0.24 0.24 0.26 0.28 0.27 0.28 0.27 0.30 0.33 0.41 0.54 0.59 0.85 0.81 0.85
0.89 0.89 0.90 0.95 0.97 0.99 1.00 1.00 1.02 1.03 0.99 0.95 0.92 0.95 0.74 0.42 0.63 0.73 0.66 0.65 0.59 0.59 0.62 0.58 0.48 0.45 0.36 0.33 0.30 0.31 0.31 0.29 0.27 0.26 0.27 0.26 0.27 0.28 0.32 0.39 0.45 0.53 0.61 0.78 0.83
1.10 1.08 1.06 1.05 1.09 1.12 1.12 1.12 1.11 1.10 1.06 1.02 1.01 0.95 0.72 0.54 0.81 0.84 0.73 0.74 0.76 0.69 0.62 0.69 0.58 0.48 0.49 0.39 0.42 0.37 0.30 0.30 0.30 0.29 0.26 0.29 0.24 0.25 0.28 0.37 0.43 0.50 0.58 0.72 0.81
1.19 1.21 1.21 1.21 1.24 1.26 1.25 1.25 1.21 1.18 1.13 1.12 1.15 0.99 0.68 0.89 0.95 0.85 0.85 0.77 0.86 0.86 0.80 0.82 0.76 0.58 0.53 0.50 0.43 0.36 0.35 0.29 0.34 0.34 0.33 0.30 0.22 0.28 0.30 0.33 0.41 0.46 0.58 0.64 0.74
1.27 1.29 1.30 1.31 1.33 1.34 1.30 1.30 1.29 1.25 1.20 1.21 1.07 0.99 0.72 1.00 0.84 0.90 0.90 0.83 0.89 0.93 0.86 0.84 0.76 0.63 0.61 0.49 0.42 0.43 0.32 0.33 0.36 0.40 0.38 0.34 0.28 0.34 0.34 0.31 0.39 0.46 0.53 0.60 0.69
1.37 1.38 1.43 1.44 1.38 1.38 1.38 1.37 1.33 1.21 1.16 1.18 1.14 0.93 0.92 0.81 0.93 0.93 0.94 0.95 0.76 0.72 0.70 0.69 0.66 0.60 0.58 0.50 0.35 0.39 0.39 0.39 0.37 0.39 0.39 0.35 0.31 0.34 0.36 0.38 0.41 0.40 0.44 0.55 0.63
1.40 1.44 1.41 1.38 1.40 1.35 1.28 1.18 0.99 0.88 0.94 0.84 0.88 0.85 0.86 0.94 0.94 0.87 0.88 0.84 0.79 0.72 0.62 0.67 0.57 0.49 0.54 0.56 0.53 0.50 0.46 0.42 0.43 0.45 0.39 0.36 0.34 0.36 0.38 0.37 0.37 0.44 0.40 0.42 0.53
1.38 1.35 1.35 1.34 1.36 1.32 1.27 0.99 0.98 0.97 0.76 0.92 0.88 0.88 0.92 0.92 0.75 0.80 0.81 0.69 0.65 0.56 0.61 0.58 0.48 0.58 0.60 0.57 0.52 0.50 0.45 0.44 0.46 0.48 0.45 0.41 0.37 0.42 0.43 0.41 0.39 0.39 0.45 0.45 0.50
1.31 1.31 1.33 1.30 1.26 1.20 1.12 1.04 1.13 1.07 0.76 0.78 0.84 0.79 0.83 0.86 0.74 0.72 0.78 0.70 0.61 0.54 0.54 0.49 0.54 0.59 0.55 0.54 0.51 0.51 0.47 0.46 0.45 0.50 0.48 0.43 0.35 0.39 0.45 0.47 0.47 0.44 0.43 0.49 0.49
1.28 1.27 1.29 1.27 1.10 1.10 1.00 1.16 1.16 1.04 0.59 0.56 0.63 0.69 0.77 0.80 0.65 0.83 0.82 0.72 0.62 0.55 0.57 0.53 0.59 0.56 0.56 0.54 0.59 0.46 0.55 0.52 0.48 0.43 0.34 0.46 0.26 0.38 0.41 0.42 0.43 0.42 0.45 0.44 0.48
1.15 1.22 1.22 1.22 1.02 0.96 1.05 1.17 1.09 0.94 0.32 0.56 0.60 0.77 0.74 0.65 0.66 0.65 0.81 0.73 0.57 0.58 0.55 0.49 0.54 0.53 0.49 0.52 0.59 0.50 0.55 0.51 0.49 0.45 0.43 0.41 0.35 0.35 0.40 0.39 0.43 0.44 0.42 0.45 0.48
1.07 1.15 1.15 1.08 1.03 1.04 1.13 1.07 0.86 0.50 0.31 0.41 0.52 0.48 0.51 0.61 0.61 0.61 0.60 0.69 0.68 0.58 0.59 0.52 0.59 0.52 0.51 0.53 0.52 0.55 0.49 0.48 0.48 0.44 0.33 0.39 0.37 0.30 0.39 0.41 0.44 0.45 0.45 0.47 0.51
1.06 1.08 1.03 1.02 0.86 1.06 1.04 0.81 0.47 0.35 0.42 0.36 0.42 0.46 0.45 0.47 0.49 0.50 0.50 0.48 0.43 0.39 0.39 0.47 0.48 0.56 0.56 0.45 0.50 0.49 0.44 0.35 0.33 0.32 0.27 0.37 0.33 0.33 0.46 0.47 0.47 0.49 0.52 0.54 0.56
1.00 1.02 0.99 0.96 0.96 0.97 0.82 0.58 0.34 0.36 0.38 0.38 0.37 0.42 0.36 0.40 0.42 0.45 0.44 0.41 0.47 0.44 0.39 0.36 0.34 0.44 0.52 0.47 0.43 0.47 0.44 0.35 0.28 0.28 0.31 0.45 0.30 0.35 0.50 0.52 0.54 0.55 0.57 0.59 0.59
1.01 0.91 0.84 0.85 0.87 0.84 0.62 0.39 0.33 0.34 0.35 0.33 0.33 0.28 0.31 0.36 0.34 0.38 0.38 0.38 0.42 0.42 0.32 0.31 0.32 0.45 0.47 0.48 0.46 0.40 0.38 0.45 0.36 0.41 0.35 0.32 0.37 0.45 0.49 0.53 0.53 0.53 0.53 0.53 0.55
0.85 0.76 0.70 0.84 0.87 0.74 0.52 0.37 0.35 0.37 0.36 0.35 0.27 0.29 0.26 0.28 0.27 0.30 0.33 0.38 0.36 0.40 0.43 0.36 0.29 0.39 0.41 0.41 0.41 0.38 0.47 0.36 0.37 0.24 0.22 0.25 0.26 0.27 0.41 0.53 0.54 0.51 0.46 0.45 0.48
0.76 0.57 0.73 0.87 0.85 0.60 0.39 0.37 0.38 0.42 0.37 0.29 0.25 0.25 0.25 0.28 0.27 0.26 0.32 0.41 0.41 0.36 0.39 0.37 0.32 0.33 0.36 0.32 0.30 0.35 0.32 0.36 0.36 0.34 0.24 0.21 0.24 0.40 0.39 0.45 0.45 0.42 0.36 0.37 0.41
0.67 0.48 0.76 0.85 0.49 0.50 0.39 0.41 0.41 0.39 0.39 0.33 0.32 0.28 0.26 0.27 0.25 0.25 0.27 0.33 0.40 0.35 0.28 0.36 0.30 0.24 0.30 0.40 0.43 0.37 0.34 0.37 0.29 0.25 0.31 0.30 0.27 0.36 0.38 0.38 0.37 0.31 0.28 0.36 0.43
0.49 0.50 0.74 0.74 0.39 0.41 0.46 0.42 0.41 0.34 0.34 0.32 0.29 0.32 0.33 0.28 0.23 0.25 0.25 0.41 0.37 0.30 0.29 0.34 0.23 0.17 0.17 0.21 0.27 0.25 0.27 0.27 0.30 0.30 0.22 0.21 0.21 0.28 0.29 0.28 0.27 0.25 0.25 0.34 0.43
0.46 0.34 0.48 0.55 0.54 0.45 0.38 0.37 0.34 0.41 0.39 0.39 0.37 0.36 0.32 0.28 0.31 0.29 0.28 0.39 0.37 0.34 0.34 0.29 0.21 0.18 0.14 0.18 0.30 0.32 0.35 0.31 0.26 0.22 0.21 0.22 0.23 0.23 0.21 0.22 0.22 0.22 0.29 0.32 0.38
0.43 0.31 0.38 0.35 0.42 0.44 0.43 0.34 0.29 0.34 0.43 0.43 0.37 0.35 0.33 0.29 0.30 0.28 0.31 0.35 0.36 0.37 0.34 0.32 0.22 0.24 0.21 0.22 0.22 0.22 0.23 0.22 0.21 0.22 0.20 0.21 0.22 0.23 0.22 0.21 0.23 0.28 0.30 0.32 0.32
0.31 0.32 0.36 0.31 0.31 0.31 0.32 0.34 0.36 0.37 0.38 0.38 0.35 0.38 0.38 0.32 0.29 0.28 0.31 0.32 0.31 0.36 0.34 0.39 0.26 0.27 0.20 0.24 0.24 0.21 0.20 0.19 0.21 0.20 0.22 0.23 0.21 0.23 0.24 0.27 0.27 0.29 0.30 0.31 0.34
0.39 0.37 0.36 0.35 0.38 0.33 0.35 0.37 0.38 0.39 0.38 0.36 0.37 0.30 0.29 0.30 0.35 0.35 0.35 0.33 0.30 0.25 0.26 0.28 0.25 0.21 0.14 0.21 0.24 0.21 0.20 0.20 0.21 0.24 0.24 0.21 0.25 0.28 0.27 0.28 0.30 0.30 0.33 0.36 0.40
Wind_Speed
34 33 32 31 30 29 28 27 26 25 25 24 24 24 23 23 24 22 22 19 19 18 18 19 18 18 18 19 19 18 19 20 20 19 19 14 18 17 17 17 16 16 15 13 14
36 35 34 33 32 31 30 29 28 28 27 26 26 26 25 25 25 26 22 22 21 20 19 19 20 20 21 20 19 20 21 22 18 19 19 19 19 20 19 21 19 19 17 15 16
38 37 36 35 35 33 33 32 31 30 29 29 28 27 27 27 26 22 23 23 23 23 23 23 23 23 23 22 23 22 25 24 21 22 22 23 22 21 22 25 24 22 21 20 20
41 40 39 38 37 36 35 34 33 32 32 31 30 30 30 27 24 23 23 25 25 25 25 25 24 24 24 24 22 25 26 27 26 25 23 25 25 25 26 26 24 25 24 23 23
43 42 41 40 39 38 37 36 35 34 33 33 33 32 30 30 31 30 30 30 29 27 27 26 26 25 26 24 26 28 28 28 27 27 28 29 29 29 29 27 25 24 21 24 25
44 43 42 41 41 40 39 37 36 36 35 35 34 33 33 35 30 32 30 30 29 28 28 27 27 26 28 29 29 29 28 29 30 30 30 32 32 32 32 28 29 26 27 26 27
42 42 42 42 41 40 40 39 38 37 37 36 36 35 37 37 32 32 32 32 31 31 31 30 29 29 27 29 30 30 32 32 32 32 33 31 35 35 32 29 28 28 27 28 28
41 40 40 40 39 39 40 39 39 38 37 37 37 37 40 37 38 37 37 36 35 35 34 33 32 32 33 31 32 33 34 34 31 29 29 30 35 29 29 29 30 29 28 29 29
42 41 40 39 38 37 36 35 35 35 36 37 37 37 40 35 36 35 36 37 35 35 35 34 33 33 32 32 33 31 33 32 30 26 28 30 31 23 24 29 29 28 29 29 29
41 40 38 37 36 34 33 33 32 32 33 33 34 32 35 34 30 30 29 30 31 30 30 31 30 30 29 30 32 30 31 30 29 28 27 29 31 29 29 26 29 30 30 30 30
41 38 38 37 35 34 31 30 30 30 32 31 29 29 26 25 25 26 25 25 26 27 27 27 28 30 30 30 32 32 31 31 29 26 27 30 31 30 29 30 30 30 31 32 32
39 37 37 36 34 32 32 31 28 28 28 31 34 35 34 29 28 27 24 25 25 27 26 26 29 29 28 28 27 28 30 31 30 28 29 29 32 31 31 32 32 32 31 32 32
39 36 35 34 32 32 32 30 27 27 28 30 31 32 32 32 32 30 27 28 27 27 27 28 24 20 26 26 28 29 30 29 30 28 30 30 35 32 32 34 33 32 32 31 32
41 38 32 34 31 31 29 27 25 21 22 26 26 27 27 27 28 31 32 28 26 29 28 30 30 30 30 31 27 30 26 28 28 27 28 26 32 27 25 23 22 26 28 28 29
43 40 36 33 28 29 29 27 23 20 19 18 19 20 20 24 20 20 23 29 31 27 24 26 25 24 27 29 28 31 25 26 27 29 30 30 27 25 12 16 16 18 23 23 26
43 41 40 36 32 30 29 28 24 21 24 21 19 20 19 23 21 19 20 23 24 31 32 30 25 23 24 24 24 24 24 26 27 26 29 28 27 24 16 12 14 14 14 19 22
43 42 40 38 36 34 30 27 23 26 23 26 24 23 24 22 25 23 22 22 22 21 27 30 34 32 28 27 26 24 25 22 22 23 28 26 24 24 9 14 18 19 20 20 23
42 43 40 38 35 36 35 32 28 30 31 24 24 26 26 23 24 25 23 24 25 25 23 22 22 26 29 33 26 26 28 24 22 25 27 18 24 23 14 16 18 19 21 23 24
41 39 38 38 37 37 36 33 33 32 34 29 27 28 27 26 24 25 26 25 22 24 23 22 22 19 20 20 25 26 26 26 28 28 24 28 32 30 29 19 21 22 22 22 24
38 36 36 38 38 37 36 37 34 29 27 30 31 28 28 28 27 26 24 23 22 22 23 20 21 20 19 20 22 24 18 19 19 21 28 28 29 27 15 19 23 26 29 31 31
34 34 36 38 38 36 36 37 34 30 30 30 33 28 29 26 27 27 24 21 23 21 21 21 22 18 21 24 25 22 25 22 21 22 20 24 25 18 19 21 26 29 33 31 32
35 30 32 34 34 34 36 35 31 31 30 28 27 30 28 25 25 23 23 21 21 21 20 19 21 24 26 18 21 23 23 22 23 24 23 26 29 30 30 29 32 36 35 33 35
35 33 31 33 30 31 30 30 32 33 31 28 27 26 24 25 24 25 24 21 22 22 20 20 22 23 26 28 27 26 28 28 27 27 32 30 33 33 35 36 38 38 37 35 37
34 33 32 35 33 33 31 29 28 31 30 28 25 26 26 26 26 22 24 23 23 22 22 23 26 27 28 25 14 21 24 26 27 27 31 33 36 36 39 39 39 39 37 38 38
33 32 34 34 33 32 32 31 33 29 29 28 26 28 27 25 26 27 25 23 24 24 25 25 28 29 32 32 31 33 33 35 36 36 36 38 38 38 40 40 39 38 36 37 38
30 29 30 29 36 31 29 28 27 25 27 29 27 27 27 26 26 24 25 24 25 24 24 24 26 25 32 31 31 33 36 38 37 38 38 38 41 38 37 36 36 35 35 36 36
26 25 27 27 28 30 28 27 26 24 24 24 27 24 25 23 22 21 22 22 23 25 25 25 24 26 34 28 29 31 36 36 37 35 34 35 36 34 33 32 31 34 33 33 32
Wind_Direction
241 243 244 245 247 249 252 254 257 260 263 266 270 274 276 278 278 272 266 263 269 275 279 279 273 278 272 270 268 271 271 272 275 275 277 275 274 262 259 253 252 253 268 268 234
242 243 245 246 247 249 252 254 257 260 263 266 269 273 276 278 275 270 260 262 267 273 278 280 279 281 272 270 269 265 268 273 287 280 278 278 272 267 258 254 255 252 257 247 240
243 244 245 246 248 250 252 254 257 259 262 266 269 272 275 276 273 260 261 261 267 271 274 276 277 276 273 268 267 270 265 274 279 274 277 276 274 269 263 259 254 251 249 244 240
243 244 245 247 248 250 252 254 257 259 262 265 268 272 273 269 263 265 261 264 268 270 272 274 275 275 272 270 268 271 269 269 273 274 272 271 272 272 265 264 269 254 249 243 241
243 244 245 246 248 250 251 253 256 259 262 264 267 269 269 262 262 264 265 266 266 266 268 272 273 273 268 271 270 269 269 270 271 270 270 272 270 271 269 266 262 258 246 244 242
243 244 245 246 248 250 252 254 256 259 261 263 266 268 265 263 265 264 265 264 263 265 267 269 270 273 272 269 269 274 275 273 271 270 270 270 270 267 267 267 259 256 251 248 243
242 243 245 246 248 249 252 254 256 259 260 263 265 266 262 261 264 265 263 263 265 264 267 269 269 268 273 272 270 272 273 272 269 267 266 269 269 266 265 262 256 255 251 248 244
241 242 244 245 247 250 252 254 256 258 260 262 264 265 263 264 264 263 263 262 262 262 264 265 267 268 268 268 272 269 270 272 272 266 267 260 270 272 262 256 252 254 251 249 245
240 242 243 244 246 249 251 253 255 258 261 261 263 264 267 264 261 262 260 258 261 260 263 263 263 264 267 264 267 263 268 270 268 261 268 262 267 268 272 263 248 253 252 249 247
238 238 239 241 244 245 248 250 254 259 261 261 261 264 261 261 260 259 259 256 256 257 259 259 258 260 259 259 261 265 261 262 266 266 263 264 264 264 262 259 256 257 253 249 247
234 234 238 240 242 242 244 248 253 259 257 254 258 254 258 260 260 255 253 255 254 253 254 249 254 254 257 257 262 268 270 269 270 271 268 268 269 268 265 262 256 257 256 253 251
232 235 236 238 235 240 240 247 253 259 263 255 256 255 256 260 261 254 251 252 248 251 252 251 255 257 257 261 264 266 265 265 267 267 268 272 270 270 268 265 261 258 256 257 253
233 233 230 231 233 238 243 242 252 257 261 260 254 253 252 252 253 253 245 249 251 251 251 251 252 259 254 258 262 261 262 264 267 272 272 274 272 271 267 261 259 259 258 257 254
228 227 227 225 233 236 237 238 245 254 259 259 254 256 248 249 256 248 247 246 249 250 251 257 257 259 256 260 261 263 263 264 267 266 267 271 277 277 278 276 260 260 256 256 259
222 222 221 217 231 235 235 233 239 245 257 248 240 248 243 238 253 246 244 241 246 244 249 251 251 253 257 260 258 260 264 268 265 266 272 266 268 279 262 263 273 285 254 261 264
219 220 222 232 235 234 227 231 238 239 246 240 239 242 240 242 247 249 245 245 249 250 253 254 254 252 259 261 258 258 260 262 261 262 262 265 262 273 277 280 282 279 280 283 281
222 222 226 231 233 228 223 225 237 240 242 238 244 242 242 243 243 244 239 239 242 246 250 252 253 255 253 255 253 255 258 262 258 250 260 266 261 254 269 274 274 279 280 285 285
221 223 230 229 226 223 222 229 240 238 237 250 245 245 244 245 251 243 245 245 247 253 262 257 252 249 249 247 256 255 250 253 262 262 267 275 259 264 273 276 282 283 284 287 289
218 222 226 227 224 221 222 232 242 245 243 243 243 242 243 244 249 243 245 247 256 255 258 263 257 258 258 250 246 255 253 260 264 264 263 260 262 262 270 270 274 278 285 290 291
218 223 226 226 223 222 227 235 242 245 245 243 238 240 239 239 241 241 241 252 253 260 257 261 259 253 251 261 255 257 257 257 257 260 257 262 260 263 259 275 277 281 285 287 287
218 223 225 223 221 225 230 235 240 241 243 243 242 242 246 239 241 240 239 252 255 256 255 254 256 252 256 256 258 252 250 253 260 258 264 266 260 254 282 284 283 288 293 287 288
219 221 221 217 219 225 227 231 239 240 240 243 247 240 238 236 239 239 244 252 252 257 253 258 262 257 253 266 258 256 256 249 256 259 258 265 263 270 278 281 284 291 292 288 286
220 223 219 213 218 220 229 236 238 236 234 236 235 237 240 234 240 243 241 247 250 254 260 258 257 262 262 257 253 260 259 255 261 264 263 266 267 271 277 280 285 287 288 288 287
217 218 220 221 226 224 230 232 235 234 236 234 235 234 234 237 241 240 240 246 250 253 260 261 260 260 260 262 267 262 258 259 261 262 266 265 274 277 279 283 285 286 287 287 286
215 219 220 221 222 228 226 233 228 229 230 228 235 235 235 240 238 240 240 243 246 250 256 258 261 262 262 263 263 263 263 265 265 266 265 272 273 276 280 283 284 286 285 286 287
213 217 219 227 219 224 225 226 221 226 226 229 232 231 234 239 241 244 244 245 251 252 253 255 260 260 263 263 261 260 261 264 266 268 271 272 274 278 282 281 282 284 288 289 290
212 216 216 214 211 213 219 214 219 219 227 230 227 229 231 237 240 246 248 253 253 254 253 252 257 261 266 267 264 261 262 264 266 265 266 266 271 273 275 277 283 287 289 290 292